User: anonymous   Login
Location: Goheenville
(40.9070°N, 79.3720°W)
Time: 08:59:35
(UTC-04:00)
Language:

NOAA 11 - Orbit

View from above orbital plane
View from above orbital plane
View from above satellite
View from above satellite

Ground track
Ground track

The orbit data is extracted from the following two-line orbital elements,

1 19531U 88089A   15239.33317079 -.00000030  00000-0  63495-5 0  9991
2 19531 098.6407 310.5610 0012141 127.1815 233.0469 14.15160765389424
Epoch (UTC): 27 August 2015 07:59:45
Eccentricity: 0.0012141
inclination: 98.6407°
perigee height: 833 km
apogee height: 850 km
right ascension of ascending node: 310.5610°
argument of perigee: 127.1815°
revolutions per day: 14.15160765
mean anomaly at epoch: 233.0469°
orbit number at epoch: 38942

The dashed part of the orbit path shows where the satellite is in the earth's shadow,  

DLR